SCP
-0 -0 -0 -0 0 -0 -0 -0 0 0 0 -0 -0 -0 0 0 0 0 0 0 0 0 0 0 0 0 0 0 0 0 0 0 0 0 0 0 0 0 0 0 0 0 0 0
0 -0 -0 0 -0 -0 -0 0 0 0 0 -0 0 0 0 0 0 0 0 0 0 0 0 -0 -0 -0 -0 0 0 0 0 0 0 0 0 0 0 0 0 0 0 0 0 0
-0 -0 -0 -0 -0 -0 0 -0 0 0 0 0 0 0 0 0 0 0 0 -0 -0 -0 -0 -0 -0 -0 -0 -0 0 0 -0 -0 -0 -0 0 0 0 0 0 0 0 0 0 0
0 -0 -0 -0 -0 0 0 0 -0 -0 0 0 0 0 0 0 0 0 0 -0 -0 -0 -0 -0 -0 -0 -0 -0 -0 -0 0 0 0 0 -0 -0 -0 0 0 0 0 0 0 0
-0 -0 0 0 0 0 -0 0 -0 0 0 0 0 0 0 0 0 0 0 0 -0 -0 -0 -0 -0 -0 -0 -0 -0 -0 -0 0 0 0 0 -0 -0 0 0 0 0 0 0 0
-0 -0 -0 0 -0 0 -0 0 0 0 0 0 0 0 0 0 0 0 0 -0 -0 -0 -0 -0 -0 -0 -0 -0 -0 -0 -0 -0 0 0 0 0 0 0 0 0 0 0 0 0
-0 -0 -0 -0 -0 -0 0 0 0 0 0 0 0 0 0 0 0 0 0 0 -0 -0 -0 -0 -0 -0 -0 -0 -0 -0 -0 -0 -0 -0 0 0 0 0 0 0 0 0 0 0
0 0 -0 -0 -0 -0 -0 -0 -0 -0 0 0 0 0 0 0 0 0 0 0 0 -0 -0 -0 -0 -0 -0 -0 -0 -0 -0 -0 -0 -0 0 -0 0 -0 0 -0 0 0 0 0
0 0 -0 -0 -0 -0 -0 0 0 0 0 0 0 0 0 0 0 0 0 0 0 -0 -0 -0 -0 -0 -0 -0 -0 -0 -0 -0 -0 -0 -0 0 0 0 0 0 0 -0 0 0
0 0 0 -0 0 0 0 -0 -0 0 0 -0 0 0 0 0 0 0 0 0 0 0 -0 0 0 -0 0 0 -0 -0 0 -0 -0 -0 -0 -0 0 0 0 0 0 0 0 0
0 0 0 0 0 0 0 0 0 0 0 0 0 0 0 0 0 0 0 0 0 0 0 0 0 0 0 0 0 0 0 0 0 0 0 0 0 -0 -0 -0 0 0 0 0
0 0 0 0 0 0 0 0 0 0 0 0 0 0 0 0 0 0 0 0 0 0 0 0 0 0 0 0 0 0 0 0 0 0 0 -0 -0 -0 -0 -0 0 0 0 0
0 0 0 0 0 0 0 0 0 0 0 0 0 0 0 0 0 0 0 0 0 0 0 0 0 0 0 0 0 0 0 0 0 0 0 0 0 0 0 0 -0 0 0 0
0 0 0 0 0 0 0 0 0 0 0 0 0 0 0 0 0 0 0 0 0 0 0 0 0 0 0 0 0 0 0 0 0 0 0 0 0 0 0 0 0 0 -0 -0
0 0 0 0 0 0 0 0 0 0 0 0 0 0 0 0 0 0 0 0 0 0 0 0 0 0 0 0 0 -0 0 0 0 0 0 0 0 0 0 0 0 0 -0 -0
0 0 0 0 0 0 0 0 0 0 0 0 0 0 0 0 0 0 0 0 0 0 0 0 0 0 0 0 0 0 0 0 0 0 0 0 0 0 0 0 0 0 -0 0
0 0 0 0 0 0 0 0 0 0 0 0 0 0 0 0 0 0 0 0 0 0 0 0 0 0 0 0 0 0 0 0 0 0 0 0 0 0 0 0 0 0 0 -0
0 0 0 0 0 0 0 0 0 0 0 0 0 0 0 0 0 0 0 0 0 0 0 0 0 0 0 0 0 0 0 0 0 -0 0 0 0 0 0 0 0 0 0 0
0 0 0 0 0 0 0 0 0 0 0 0 0 0 0 0 0 0 0 0 0 0 0 0 0 0 0 0 0 0 0 0 0 -0 -0 0 0 0 0 0 0 0 0 0
0 0 0 0 0 0 0 0 0 0 0 0 0 0 0 0 0 0 0 0 0 0 0 0 0 0 0 0 0 0 0 0 -0 -0 -0 -0 0 0 0 0 0 0 0 0
0 0 0 0 0 0 0 0 0 0 0 0 0 0 0 0 0 0 0 0 0 0 0 0 0 0 0 0 0 0 0 0 0 -0 -0 0 0 0 0 0 0 0 0 0
0 0 0 0 0 0 0 0 0 0 0 0 0 0 0 0 0 0 0 0 0 0 0 0 0 0 0 0 0 0 0 0 -0 -0 0 0 0 0 0 0 0 0 0 0
0 0 0 0 0 0 0 0 0 0 0 0 0 0 0 0 0 0 0 0 0 0 0 0 0 0 0 0 0 0 0 0 -0 -0 -0 0 0 0 0 0 0 0 0 0
0 0 0 0 0 0 0 0 0 0 0 0 0 0 0 0 0 0 0 0 0 0 0 0 0 0 0 0 0 0 0 0 -0 -0 0 0 0 0 0 0 0 0 0 0
0 0 0 0 0 0 0 0 0 0 0 0 0 0 0 0 0 0 0 0 0 0 0 0 0 0 0 0 0 0 0 0 -0 -0 0 0 0 0 0 0 0 0 0 0
0 0 0 0 0 0 0 0 0 0 0 0 0 0 0 0 0 0 0 0 0 0 0 0 0 0 0 0 0 0 0 0 0 -0 0 0 0 0 0 0 0 0 0 0
Wind_Speed_500mb
46 28 16 13 7 9 12 9 6 6 8 15 22 19 15 25 35 34 39 45 51 56 59 65 67 69 70 71 73 75 74 74 71 71 68 55 43 45 41 35 38 44 39 58
13 29 14 9 14 18 15 7 10 6 10 19 18 18 12 20 25 32 33 42 49 55 62 68 71 71 69 68 71 74 75 75 73 71 69 66 58 48 46 45 46 40 46 45
22 8 14 12 20 15 7 11 8 5 11 15 20 8 8 11 23 28 35 38 42 47 54 61 67 70 69 69 70 71 73 74 75 76 69 65 61 57 50 42 50 49 49 47
17 20 12 13 12 7 3 8 4 5 5 7 5 4 8 8 6 17 24 33 40 41 47 51 57 63 64 65 66 67 69 72 73 76 79 78 77 76 72 63 58 58 54 54
2 11 14 13 7 10 9 17 5 4 5 7 10 7 3 8 4 6 18 28 36 37 39 47 49 53 56 61 68 69 67 68 70 73 75 77 78 75 73 74 67 57 56 51
8 6 9 7 11 8 24 6 12 8 5 6 9 7 7 9 9 5 10 20 30 33 36 43 43 47 54 60 68 73 75 71 68 70 72 73 75 77 80 80 79 76 67 63
11 8 9 13 10 15 19 13 7 10 9 8 3 7 11 9 8 14 8 16 30 39 40 46 51 49 55 63 71 75 77 76 70 67 67 70 71 72 75 79 84 83 81 76
9 10 16 24 6 5 10 7 8 7 3 9 14 8 7 13 17 12 9 18 26 30 31 36 42 44 53 58 65 69 73 69 66 66 66 66 68 70 71 73 77 80 82 80
7 2 8 9 8 5 11 11 7 12 2 7 6 10 2 7 6 4 9 16 26 32 40 44 40 39 43 56 62 64 68 66 64 65 67 68 69 69 71 71 73 77 79 81
4 5 5 9 7 14 12 1 6 7 5 9 8 9 9 13 12 7 5 14 27 42 53 53 35 38 41 54 52 56 61 62 63 64 64 67 68 69 70 70 72 76 77 82
6 6 6 3 9 3 8 5 10 8 6 8 4 12 12 13 11 11 5 26 53 62 62 52 27 37 50 50 47 53 65 67 64 63 64 66 67 69 71 72 73 75 77 79
2 8 3 3 12 9 2 6 7 8 11 4 5 13 7 1 7 3 34 67 74 64 61 34 29 43 49 45 51 65 70 71 68 65 65 66 69 71 73 74 75 77 78 76
6 3 6 12 10 8 2 5 7 9 6 11 9 11 5 22 25 57 57 66 72 75 61 29 36 42 44 46 58 66 66 70 68 65 67 68 71 73 71 73 77 79 79 78
7 3 12 12 9 6 4 5 6 11 6 7 18 18 39 36 38 54 64 73 73 73 42 31 37 36 37 48 65 71 67 65 67 66 68 70 72 73 72 74 76 80 79 78
10 7 3 8 12 8 18 26 25 24 19 12 29 29 38 32 42 55 67 70 64 54 33 36 29 36 46 61 77 69 61 67 71 71 70 73 74 72 71 74 76 77 79 76
8 5 5 10 7 9 25 37 33 32 32 31 45 47 68 70 60 48 60 56 51 47 40 28 38 50 62 78 80 64 64 66 75 70 71 75 77 73 70 72 76 78 78 77
11 9 5 11 8 11 16 19 26 11 13 13 15 23 30 19 35 45 48 50 55 47 37 43 51 63 71 80 64 64 62 73 74 68 70 76 77 72 69 71 75 78 78 77
11 10 6 8 7 1 12 7 11 23 14 29 24 25 47 54 62 54 41 47 51 49 52 64 72 79 78 63 62 64 69 73 66 68 72 76 76 71 67 69 72 76 76 74
17 8 1 3 6 15 19 13 14 17 18 47 31 45 58 65 46 44 42 45 53 53 62 71 76 80 67 59 65 73 74 65 67 68 74 78 73 68 66 68 71 73 74 72
7 7 8 4 6 14 11 6 10 9 18 42 49 47 47 40 10 22 54 59 59 60 65 71 71 68 59 68 66 69 68 68 68 71 78 78 69 62 62 66 68 70 70 71
7 7 29 20 14 17 26 27 13 8 22 20 26 36 44 19 49 65 66 78 61 63 64 68 65 60 66 72 67 71 69 66 69 75 80 73 63 58 57 60 62 65 68 69
17 17 9 4 6 21 40 12 17 35 35 39 55 57 57 62 64 73 81 72 69 61 71 63 57 60 69 66 70 70 67 71 77 80 75 67 59 54 54 57 58 60 62 66
4 17 12 24 19 22 35 45 47 55 60 70 63 79 79 72 77 82 79 76 62 63 63 51 53 61 64 67 67 69 75 79 79 74 70 63 56 52 51 55 58 61 60 63
11 29 10 4 27 68 50 77 87 91 90 88 86 82 78 78 65 72 74 70 66 65 54 53 57 61 64 59 60 65 69 70 70 67 62 57 56 55 54 53 54 59 58 61
22 23 21 33 55 71 72 86 95 87 79 78 75 70 72 59 73 78 68 65 63 65 58 56 57 58 52 50 54 59 64 65 63 61 58 55 55 57 59 57 57 58 56 52
41 31 17 29 66 52 72 87 82 74 75 71 71 72 77 75 72 64 59 58 60 59 55 54 51 44 41 46 52 57 63 62 62 62 60 58 58 59 60 62 65 55 55 52
Wind_Direction_500mb
43 60 33 334 346 95 101 82 55 358 52 75 97 96 79 65 65 59 51 45 41 36 30 25 22 19 18 18 17 17 13 13 10 6 1 357 351 310 306 296 287 265 274 276
44 48 331 359 32 66 52 66 3 296 345 101 108 91 78 68 67 60 52 44 37 31 28 23 20 20 20 17 17 16 15 13 10 7 6 2 354 348 336 311 299 288 264 269
74 314 347 40 35 26 46 80 331 240 7 68 119 116 104 71 72 61 53 48 40 34 28 23 19 21 21 21 18 15 14 13 12 8 3 357 353 352 338 321 298 287 287 287
67 2 26 32 58 358 312 102 270 270 82 169 152 240 200 147 83 55 48 41 37 33 29 24 18 19 20 21 17 15 11 9 8 7 5 6 3 357 354 342 330 317 309 279
66 5 12 34 344 331 267 322 213 178 94 74 343 71 262 176 59 33 42 40 36 32 27 21 16 11 10 8 8 6 5 4 3 3 4 2 1 358 352 348 340 326 318 304
75 26 42 309 299 318 304 23 46 52 66 33 262 119 224 203 176 140 56 44 30 27 19 16 10 4 0 358 356 356 356 357 356 356 357 359 358 355 352 350 345 340 330 324
346 20 345 6 359 348 15 43 1 3 11 212 26 35 243 164 179 130 84 27 19 12 7 5 2 357 354 353 351 350 348 349 349 350 350 351 352 352 351 351 349 344 339 332
35 354 12 347 61 299 356 90 132 201 317 288 335 261 290 185 123 103 42 21 11 359 351 349 355 352 347 346 344 345 346 347 348 346 345 344 345 346 346 346 345 344 342 339
44 319 332 12 4 47 317 41 145 103 80 29 277 289 311 189 140 47 4 6 359 349 342 335 342 345 340 338 341 340 343 343 345 345 342 341 340 340 340 340 340 340 340 338
196 28 2 310 355 27 80 91 37 14 54 304 293 275 245 223 222 246 313 340 339 337 336 330 319 329 328 333 334 336 342 343 344 343 341 340 338 337 336 335 335 335 335 336
107 94 290 22 30 317 353 33 57 110 126 173 289 270 217 214 211 224 270 323 318 318 319 323 301 320 326 333 330 337 341 342 340 339 339 338 337 335 334 333 332 331 331 332
140 140 228 207 294 275 140 171 110 112 270 223 158 270 293 51 267 248 308 312 317 315 316 309 306 318 328 335 338 336 332 334 335 335 335 334 334 332 331 330 329 328 326 327
190 329 5 349 354 353 119 198 120 103 71 215 141 262 260 293 295 314 312 309 317 319 319 288 307 317 326 330 332 328 326 328 328 329 330 330 330 330 330 330 330 329 324 322
113 133 173 199 197 134 259 227 155 130 139 204 227 272 279 294 293 299 302 308 311 315 303 286 300 310 320 324 331 329 324 327 327 327 327 327 327 327 326 327 327 327 326 321
136 193 203 259 250 213 246 255 240 212 224 205 272 261 271 274 281 288 294 301 305 308 282 291 305 316 320 326 327 324 320 324 324 324 323 324 323 323 321 322 325 325 325 322
165 260 85 302 329 267 261 258 246 242 246 247 252 268 266 270 280 281 297 308 311 301 275 282 303 313 319 323 323 316 318 321 321 320 320 321 321 321 319 320 321 322 323 323
154 131 78 270 344 340 299 244 223 179 200 190 209 242 275 269 279 286 299 308 310 301 268 290 305 315 321 321 315 312 312 317 316 315 318 320 320 319 318 319 320 320 322 321
136 112 120 255 18 332 247 253 190 208 221 226 253 263 265 268 278 282 284 296 302 296 288 299 304 314 317 313 310 308 311 313 310 313 315 318 319 317 318 320 319 319 321 321
174 136 285 191 200 305 284 270 173 185 243 245 251 259 265 272 279 275 280 301 300 291 295 300 302 310 309 306 310 307 309 308 309 312 315 317 317 316 318 320 320 319 320 320
123 137 168 85 198 233 243 224 152 121 280 241 248 253 260 272 250 257 291 302 299 296 297 300 302 305 299 304 309 306 308 305 303 308 313 315 314 313 316 318 320 319 319 320
134 192 220 223 248 278 250 240 124 105 260 278 244 261 265 229 257 280 294 301 299 302 306 303 300 297 303 307 304 306 303 298 301 306 310 311 311 312 315 317 321 319 321 320
165 160 195 133 205 278 224 129 185 229 271 271 283 287 280 282 286 286 294 298 301 298 307 299 292 299 306 304 306 303 299 299 302 306 308 308 309 312 314 316 320 323 326 324
264 190 183 196 205 234 200 221 255 270 269 280 282 291 294 290 295 300 296 297 297 301 300 287 291 300 302 303 302 300 301 302 303 305 306 306 306 309 312 314 318 320 325 327
246 220 231 172 229 256 246 264 275 279 278 282 285 288 288 288 290 294 294 296 295 299 291 289 295 300 303 303 306 307 308 307 306 305 305 306 307 309 311 313 315 317 323 323
213 167 227 251 260 269 271 267 270 276 280 277 283 286 284 281 292 295 292 293 292 292 287 291 297 300 303 308 313 314 313 311 309 308 308 308 308 310 311 313 314 315 318 320
219 231 224 254 262 255 269 275 281 281 281 286 287 290 286 287 291 290 287 288 287 284 285 290 296 297 306 315 320 320 317 314 310 308 308 309 309 311 313 314 312 311 312 314
Wind_Speed_850mb
46 28 16 13 7 9 12 9 6 6 8 15 22 19 15 25 35 34 39 45 51 56 59 65 67 69 70 71 73 75 74 74 71 71 68 55 43 45 41 35 38 44 39 58
13 29 14 9 14 18 15 7 10 6 10 19 18 18 12 20 25 32 33 42 49 55 62 68 71 71 69 68 71 74 75 75 73 71 69 66 58 48 46 45 46 40 46 45
22 8 14 12 20 15 7 11 8 5 11 15 20 8 8 11 23 28 35 38 42 47 54 61 67 70 69 69 70 71 73 74 75 76 69 65 61 57 50 42 50 49 49 47
17 20 12 13 12 7 3 8 4 5 5 7 5 4 8 8 6 17 24 33 40 41 47 51 57 63 64 65 66 67 69 72 73 76 79 78 77 76 72 63 58 58 54 54
2 11 14 13 7 10 9 17 5 4 5 7 10 7 3 8 4 6 18 28 36 37 39 47 49 53 56 61 68 69 67 68 70 73 75 77 78 75 73 74 67 57 56 51
8 6 9 7 11 8 24 6 12 8 5 6 9 7 7 9 9 5 10 20 30 33 36 43 43 47 54 60 68 73 75 71 68 70 72 73 75 77 80 80 79 76 67 63
11 8 9 13 10 15 19 13 7 10 9 8 3 7 11 9 8 14 8 16 30 39 40 46 51 49 55 63 71 75 77 76 70 67 67 70 71 72 75 79 84 83 81 76
9 10 16 24 6 5 10 7 8 7 3 9 14 8 7 13 17 12 9 18 26 30 31 36 42 44 53 58 65 69 73 69 66 66 66 66 68 70 71 73 77 80 82 80
7 2 8 9 8 5 11 11 7 12 2 7 6 10 2 7 6 4 9 16 26 32 40 44 40 39 43 56 62 64 68 66 64 65 67 68 69 69 71 71 73 77 79 81
4 5 5 9 7 14 12 1 6 7 5 9 8 9 9 13 12 7 5 14 27 42 53 53 35 38 41 54 52 56 61 62 63 64 64 67 68 69 70 70 72 76 77 82
6 6 6 3 9 3 8 5 10 8 6 8 4 12 12 13 11 11 5 26 53 62 62 52 27 37 50 50 47 53 65 67 64 63 64 66 67 69 71 72 73 75 77 79
2 8 3 3 12 9 2 6 7 8 11 4 5 13 7 1 7 3 34 67 74 64 61 34 29 43 49 45 51 65 70 71 68 65 65 66 69 71 73 74 75 77 78 76
6 3 6 12 10 8 2 5 7 9 6 11 9 11 5 22 25 57 57 66 72 75 61 29 36 42 44 46 58 66 66 70 68 65 67 68 71 73 71 73 77 79 79 78
7 3 12 12 9 6 4 5 6 11 6 7 18 18 39 36 38 54 64 73 73 73 42 31 37 36 37 48 65 71 67 65 67 66 68 70 72 73 72 74 76 80 79 78
10 7 3 8 12 8 18 26 25 24 19 12 29 29 38 32 42 55 67 70 64 54 33 36 29 36 46 61 77 69 61 67 71 71 70 73 74 72 71 74 76 77 79 76
8 5 5 10 7 9 25 37 33 32 32 31 45 47 68 70 60 48 60 56 51 47 40 28 38 50 62 78 80 64 64 66 75 70 71 75 77 73 70 72 76 78 78 77
11 9 5 11 8 11 16 19 26 11 13 13 15 23 30 19 35 45 48 50 55 47 37 43 51 63 71 80 64 64 62 73 74 68 70 76 77 72 69 71 75 78 78 77
11 10 6 8 7 1 12 7 11 23 14 29 24 25 47 54 62 54 41 47 51 49 52 64 72 79 78 63 62 64 69 73 66 68 72 76 76 71 67 69 72 76 76 74
17 8 1 3 6 15 19 13 14 17 18 47 31 45 58 65 46 44 42 45 53 53 62 71 76 80 67 59 65 73 74 65 67 68 74 78 73 68 66 68 71 73 74 72
7 7 8 4 6 14 11 6 10 9 18 42 49 47 47 40 10 22 54 59 59 60 65 71 71 68 59 68 66 69 68 68 68 71 78 78 69 62 62 66 68 70 70 71
7 7 29 20 14 17 26 27 13 8 22 20 26 36 44 19 49 65 66 78 61 63 64 68 65 60 66 72 67 71 69 66 69 75 80 73 63 58 57 60 62 65 68 69
17 17 9 4 6 21 40 12 17 35 35 39 55 57 57 62 64 73 81 72 69 61 71 63 57 60 69 66 70 70 67 71 77 80 75 67 59 54 54 57 58 60 62 66
4 17 12 24 19 22 35 45 47 55 60 70 63 79 79 72 77 82 79 76 62 63 63 51 53 61 64 67 67 69 75 79 79 74 70 63 56 52 51 55 58 61 60 63
11 29 10 4 27 68 50 77 87 91 90 88 86 82 78 78 65 72 74 70 66 65 54 53 57 61 64 59 60 65 69 70 70 67 62 57 56 55 54 53 54 59 58 61
22 23 21 33 55 71 72 86 95 87 79 78 75 70 72 59 73 78 68 65 63 65 58 56 57 58 52 50 54 59 64 65 63 61 58 55 55 57 59 57 57 58 56 52
41 31 17 29 66 52 72 87 82 74 75 71 71 72 77 75 72 64 59 58 60 59 55 54 51 44 41 46 52 57 63 62 62 62 60 58 58 59 60 62 65 55 55 52
Wind_Direction_850mb
43 60 33 334 346 95 101 82 55 358 52 75 97 96 79 65 65 59 51 45 41 36 30 25 22 19 18 18 17 17 13 13 10 6 1 357 351 310 306 296 287 265 274 276
44 48 331 359 32 66 52 66 3 296 345 101 108 91 78 68 67 60 52 44 37 31 28 23 20 20 20 17 17 16 15 13 10 7 6 2 354 348 336 311 299 288 264 269
74 314 347 40 35 26 46 80 331 240 7 68 119 116 104 71 72 61 53 48 40 34 28 23 19 21 21 21 18 15 14 13 12 8 3 357 353 352 338 321 298 287 287 287
67 2 26 32 58 358 312 102 270 270 82 169 152 240 200 147 83 55 48 41 37 33 29 24 18 19 20 21 17 15 11 9 8 7 5 6 3 357 354 342 330 317 309 279
66 5 12 34 344 331 267 322 213 178 94 74 343 71 262 176 59 33 42 40 36 32 27 21 16 11 10 8 8 6 5 4 3 3 4 2 1 358 352 348 340 326 318 304
75 26 42 309 299 318 304 23 46 52 66 33 262 119 224 203 176 140 56 44 30 27 19 16 10 4 0 358 356 356 356 357 356 356 357 359 358 355 352 350 345 340 330 324
346 20 345 6 359 348 15 43 1 3 11 212 26 35 243 164 179 130 84 27 19 12 7 5 2 357 354 353 351 350 348 349 349 350 350 351 352 352 351 351 349 344 339 332
35 354 12 347 61 299 356 90 132 201 317 288 335 261 290 185 123 103 42 21 11 359 351 349 355 352 347 346 344 345 346 347 348 346 345 344 345 346 346 346 345 344 342 339
44 319 332 12 4 47 317 41 145 103 80 29 277 289 311 189 140 47 4 6 359 349 342 335 342 345 340 338 341 340 343 343 345 345 342 341 340 340 340 340 340 340 340 338
196 28 2 310 355 27 80 91 37 14 54 304 293 275 245 223 222 246 313 340 339 337 336 330 319 329 328 333 334 336 342 343 344 343 341 340 338 337 336 335 335 335 335 336
107 94 290 22 30 317 353 33 57 110 126 173 289 270 217 214 211 224 270 323 318 318 319 323 301 320 326 333 330 337 341 342 340 339 339 338 337 335 334 333 332 331 331 332
140 140 228 207 294 275 140 171 110 112 270 223 158 270 293 51 267 248 308 312 317 315 316 309 306 318 328 335 338 336 332 334 335 335 335 334 334 332 331 330 329 328 326 327
190 329 5 349 354 353 119 198 120 103 71 215 141 262 260 293 295 314 312 309 317 319 319 288 307 317 326 330 332 328 326 328 328 329 330 330 330 330 330 330 330 329 324 322
113 133 173 199 197 134 259 227 155 130 139 204 227 272 279 294 293 299 302 308 311 315 303 286 300 310 320 324 331 329 324 327 327 327 327 327 327 327 326 327 327 327 326 321
136 193 203 259 250 213 246 255 240 212 224 205 272 261 271 274 281 288 294 301 305 308 282 291 305 316 320 326 327 324 320 324 324 324 323 324 323 323 321 322 325 325 325 322
165 260 85 302 329 267 261 258 246 242 246 247 252 268 266 270 280 281 297 308 311 301 275 282 303 313 319 323 323 316 318 321 321 320 320 321 321 321 319 320 321 322 323 323
154 131 78 270 344 340 299 244 223 179 200 190 209 242 275 269 279 286 299 308 310 301 268 290 305 315 321 321 315 312 312 317 316 315 318 320 320 319 318 319 320 320 322 321
136 112 120 255 18 332 247 253 190 208 221 226 253 263 265 268 278 282 284 296 302 296 288 299 304 314 317 313 310 308 311 313 310 313 315 318 319 317 318 320 319 319 321 321
174 136 285 191 200 305 284 270 173 185 243 245 251 259 265 272 279 275 280 301 300 291 295 300 302 310 309 306 310 307 309 308 309 312 315 317 317 316 318 320 320 319 320 320
123 137 168 85 198 233 243 224 152 121 280 241 248 253 260 272 250 257 291 302 299 296 297 300 302 305 299 304 309 306 308 305 303 308 313 315 314 313 316 318 320 319 319 320
134 192 220 223 248 278 250 240 124 105 260 278 244 261 265 229 257 280 294 301 299 302 306 303 300 297 303 307 304 306 303 298 301 306 310 311 311 312 315 317 321 319 321 320
165 160 195 133 205 278 224 129 185 229 271 271 283 287 280 282 286 286 294 298 301 298 307 299 292 299 306 304 306 303 299 299 302 306 308 308 309 312 314 316 320 323 326 324
264 190 183 196 205 234 200 221 255 270 269 280 282 291 294 290 295 300 296 297 297 301 300 287 291 300 302 303 302 300 301 302 303 305 306 306 306 309 312 314 318 320 325 327
246 220 231 172 229 256 246 264 275 279 278 282 285 288 288 288 290 294 294 296 295 299 291 289 295 300 303 303 306 307 308 307 306 305 305 306 307 309 311 313 315 317 323 323
213 167 227 251 260 269 271 267 270 276 280 277 283 286 284 281 292 295 292 293 292 292 287 291 297 300 303 308 313 314 313 311 309 308 308 308 308 310 311 313 314 315 318 320
219 231 224 254 262 255 269 275 281 281 281 286 287 290 286 287 291 290 287 288 287 284 285 290 296 297 306 315 320 320 317 314 310 308 308 309 309 311 313 314 312 311 312 314